Location: Karaa?a�
(36.7158°N, 30.4165°E)
Time: 22:56:15
(UTC+00:00)

Cosmos 676 Rocket - Pass Details

Date: 09 April 2020
Orbit: 755 x 783 km, 74.0° (Epoch: 24 May)

Event Time Altitude Azimuth Distance (km) Brightness Sun altitude
Rises 17:22:58 0° 180° (S) 3,244 7.1 -11.5°
Reaches altitude 10° 17:25:25 10° 174° (S) 2,317 6.2 -12.0°
Maximum altitude 17:30:25 46° 102° (ESE) 1,036 4.2 -12.9°
Drops below altitude 10° 17:35:25 10° 31° (NNE) 2,314 6.4 -13.8°
Sets 17:37:52 0° 25° (NNE) 3,239 7.2 -14.3°
